CPA240 YMML-YSSY

Flight info

Callsign CPA240
Flight time 1h 2m
Altitude 37000
Route DOSEL2/34 DOSEL Y59 RIVET
Aircraft B77W/H-SDE1E2E3FGHIJ2J3J4J5M1RWXY/LB1D1

Departure

Time 2026-05-04 10:32
Airport Melbourne Airport (YMML)

Arrival

Time 2026-05-04 11:34
Airport Sydney Kingsford Smith International Airport (YSSY)
Time Latitude Longitude Altitude Speed Heading
2026-05-04 09:42 -37.66754 144.84543 401 ft 0 kts 172°
2026-05-04 10:11 -37.66739 144.84540 397 ft 4 kts 171°
2026-05-04 10:11 -37.66712 144.84535 401 ft 4 kts 171°
2026-05-04 10:12 -37.66686 144.84531 383 ft 4 kts 182°
2026-05-04 10:12 -37.66664 144.84538 399 ft 4 kts 239°
2026-05-04 10:12 -37.66658 144.84565 401 ft 4 kts 261°
2026-05-04 10:12 -37.66655 144.84590 401 ft 1 kts 261°
2026-05-04 10:16 -37.66656 144.84586 405 ft 5 kts 261°
2026-05-04 10:17 -37.66670 144.84467 403 ft 16 kts 262°
2026-05-04 10:17 -37.66690 144.84302 398 ft 21 kts 262°
2026-05-04 10:19 -37.66768 144.83991 395 ft 9 kts 186°
2026-05-04 10:19 -37.66886 144.84003 393 ft 27 kts 173°
2026-05-04 10:19 -37.67021 144.84027 389 ft 10 kts 172°
2026-05-04 10:19 -37.67031 144.84029 389 ft 0 kts 172°
2026-05-04 10:20 -37.67106 144.84043 387 ft 21 kts 172°
2026-05-04 10:20 -37.67256 144.84071 382 ft 23 kts 171°
2026-05-04 10:21 -37.67415 144.84100 378 ft 24 kts 172°
2026-05-04 10:21 -37.67585 144.84134 374 ft 25 kts 171°
2026-05-04 10:21 -37.67725 144.84158 371 ft 13 kts 172°
2026-05-04 10:21 -37.67825 144.84187 369 ft 16 kts 148°
2026-05-04 10:22 -37.67942 144.84403 366 ft 17 kts 165°
2026-05-04 10:22 -37.68068 144.84431 363 ft 19 kts 170°
2026-05-04 10:22 -37.68170 144.84449 361 ft 14 kts 171°
2026-05-04 10:23 -37.68274 144.84470 358 ft 16 kts 173°
2026-05-04 10:23 -37.68388 144.84432 351 ft 18 kts 212°
2026-05-04 10:25 -37.68540 144.84276 355 ft 0 kts 244°
2026-05-04 10:29 -37.68540 144.84275 354 ft 0 kts 244°
2026-05-04 10:29 -37.68552 144.84224 354 ft 13 kts 258°
2026-05-04 10:29 -37.68564 144.84124 355 ft 9 kts 269°
2026-05-04 10:30 -37.68541 144.84095 356 ft 5 kts 340°
2026-05-04 10:30 -37.68508 144.84086 354 ft 5 kts 347°
2026-05-04 10:30 -37.68492 144.84081 360 ft 2 kts 348°
2026-05-04 10:30 -37.68469 144.84078 357 ft 0 kts 352°
2026-05-04 10:31 -37.68451 144.84075 357 ft 19 kts 352°
2026-05-04 10:31 -37.68027 144.83997 362 ft 102 kts 352°
2026-05-04 10:32 -37.62153 144.82775 3653 ft 171 kts 343°
2026-05-04 10:33 -37.60938 144.82588 4228 ft 182 kts 344°
2026-05-04 10:33 -37.59644 144.82385 4626 ft 199 kts 354°
2026-05-04 10:33 -37.58194 144.82853 4823 ft 235 kts 15°
2026-05-04 10:33 -37.56593 144.83752 4983 ft 267 kts 19°
2026-05-04 10:34 -37.54880 144.84799 4968 ft 269 kts 19°
2026-05-04 10:34 -37.53240 144.85819 5007 ft 267 kts 20°
2026-05-04 10:34 -37.51558 144.86860 4979 ft 270 kts 19°
2026-05-04 10:34 -37.49872 144.87895 5001 ft 271 kts 20°
2026-05-04 10:35 -37.48170 144.88931 4989 ft 271 kts 20°
2026-05-04 10:35 -37.46477 144.89958 5017 ft 269 kts 20°
2026-05-04 10:35 -37.44788 144.90984 5007 ft 270 kts 20°
2026-05-04 10:35 -37.43243 144.92313 4997 ft 275 kts 44°
2026-05-04 10:36 -37.42101 144.94293 5017 ft 285 kts 50°
2026-05-04 10:36 -37.40963 144.96359 5013 ft 289 kts 50°
2026-05-04 10:36 -37.39813 144.98422 5000 ft 286 kts 50°
2026-05-04 10:36 -37.38675 145.00454 5014 ft 283 kts 51°
2026-05-04 10:37 -37.37543 145.02472 5053 ft 281 kts 49°
2026-05-04 10:37 -37.36416 145.04480 5629 ft 282 kts 49°
2026-05-04 10:37 -37.35274 145.06505 6609 ft 285 kts 49°
2026-05-04 10:37 -37.34118 145.08548 7520 ft 289 kts 49°
2026-05-04 10:39 -37.26420 145.22094 11138 ft 380 kts 51°
2026-05-04 10:39 -37.24858 145.24849 11867 ft 392 kts 51°
2026-05-04 10:39 -37.23260 145.27672 12900 ft 399 kts 51°
2026-05-04 10:40 -37.21642 145.30520 14006 ft 403 kts 51°
2026-05-04 10:40 -37.20004 145.33401 14965 ft 409 kts 51°
2026-05-04 10:40 -37.18338 145.36326 15943 ft 414 kts 51°
2026-05-04 10:40 -37.16648 145.39283 16898 ft 420 kts 51°
2026-05-04 10:41 -37.14933 145.42278 17859 ft 426 kts 51°
2026-05-04 10:41 -37.13193 145.45309 18731 ft 431 kts 51°
2026-05-04 10:41 -37.11430 145.48377 19583 ft 436 kts 51°
2026-05-04 10:41 -37.09653 145.51467 20437 ft 440 kts 50°
2026-05-04 10:42 -37.07859 145.54588 21290 ft 443 kts 50°
2026-05-04 10:42 -37.06047 145.57737 22089 ft 448 kts 50°
2026-05-04 10:42 -37.04213 145.60918 22864 ft 453 kts 50°
2026-05-04 10:42 -37.02360 145.64134 23621 ft 458 kts 50°
2026-05-04 10:43 -37.00481 145.67393 24034 ft 465 kts 50°
2026-05-04 10:44 -36.87262 145.90235 24502 ft 469 kts 48°
2026-05-04 10:45 -36.85342 145.93534 25158 ft 471 kts 48°
2026-05-04 10:45 -36.83409 145.96856 25825 ft 475 kts 47°
2026-05-04 10:45 -36.81459 146.00204 26376 ft 480 kts 46°
2026-05-04 10:45 -36.79479 146.03589 26897 ft 485 kts 46°
2026-05-04 10:46 -36.78134 146.05891 27255 ft 488 kts 45°
2026-05-04 10:46 -36.75487 146.10427 28123 ft 490 kts 45°
2026-05-04 10:46 -36.73471 146.13877 28578 ft 495 kts 45°
2026-05-04 10:46 -36.71427 146.17366 28998 ft 501 kts 45°
2026-05-04 10:47 -36.70036 146.19738 29287 ft 504 kts 45°
2026-05-04 10:47 -36.67962 146.23274 29741 ft 507 kts 45°
2026-05-04 10:47 -36.65877 146.26829 30202 ft 509 kts 44°
2026-05-04 10:47 -36.63792 146.30386 30676 ft 509 kts 45°
2026-05-04 10:49 -36.49157 146.55202 33702 ft 510 kts 45°
2026-05-04 10:49 -36.47047 146.58761 34027 ft 513 kts 45°
2026-05-04 10:50 -36.44956 146.62286 34328 ft 514 kts 45°
2026-05-04 10:51 -36.30038 146.87339 36593 ft 517 kts 46°
2026-05-04 10:52 -36.27901 146.90915 36927 ft 516 kts 46°
2026-05-04 10:52 -36.23582 146.98123 37065 ft 523 kts 46°
2026-05-04 10:54 -36.06464 147.26569 37058 ft 513 kts 46°
2026-05-04 10:56 -35.89377 147.54745 37081 ft 512 kts 45°
2026-05-04 10:57 -35.85097 147.61770 37092 ft 512 kts 45°
2026-05-04 10:57 -35.80811 147.68782 37090 ft 512 kts 45°
2026-05-04 10:58 -35.76520 147.75786 37085 ft 513 kts 45°
2026-05-04 10:58 -35.72246 147.82748 37097 ft 513 kts 45°
2026-05-04 10:59 -35.67937 147.89755 37102 ft 514 kts 45°
2026-05-04 10:59 -35.63624 147.96760 37104 ft 514 kts 45°
2026-05-04 11:00 -35.59296 148.03773 37192 ft 517 kts 45°
2026-05-04 11:01 -35.44036 148.28394 38112 ft 513 kts 45°
2026-05-04 11:02 -35.41876 148.31866 38120 ft 512 kts 45°
2026-05-04 11:05 -35.09328 148.83629 38114 ft 513 kts 44°
2026-05-04 11:06 -35.04962 148.90518 38092 ft 513 kts 44°
2026-05-04 11:06 -35.00594 148.97398 38105 ft 513 kts 44°
2026-05-04 11:10 -34.71045 149.45464 33164 ft 519 kts 54°
2026-05-04 11:12 -34.59667 149.71819 28767 ft 484 kts 54°
2026-05-04 11:12 -34.58085 149.75407 28106 ft 480 kts 54°
2026-05-04 11:12 -34.56519 149.78964 27545 ft 475 kts 54°
2026-05-04 11:12 -34.54971 149.82483 27013 ft 470 kts 54°
2026-05-04 11:13 -34.53437 149.85966 26464 ft 466 kts 53°
2026-05-04 11:13 -34.51919 149.89415 25897 ft 462 kts 54°
2026-05-04 11:13 -34.50411 149.92829 25405 ft 457 kts 54°
2026-05-04 11:13 -34.48917 149.96206 24889 ft 453 kts 53°
2026-05-04 11:14 -34.47435 149.99552 24381 ft 449 kts 53°
2026-05-04 11:14 -34.45964 150.02874 23868 ft 446 kts 53°
2026-05-04 11:14 -34.44505 150.06172 23292 ft 443 kts 53°
2026-05-04 11:16 -34.34656 150.28321 19510 ft 407 kts 54°
2026-05-04 11:16 -34.33339 150.31278 18514 ft 394 kts 54°
2026-05-04 11:16 -34.32045 150.34177 17203 ft 389 kts 55°
2026-05-04 11:17 -34.30770 150.37037 15827 ft 384 kts 55°
2026-05-04 11:17 -34.29501 150.39864 14568 ft 385 kts 55°
2026-05-04 11:19 -34.20600 150.59737 11025 ft 379 kts 57°
2026-05-04 11:19 -34.19356 150.62510 10787 ft 370 kts 57°
2026-05-04 11:19 -34.18148 150.65202 10621 ft 360 kts 56°
2026-05-04 11:19 -34.16970 150.67829 10450 ft 350 kts 57°
2026-05-04 11:20 -34.15827 150.70372 10336 ft 340 kts 56°
2026-05-04 11:20 -34.14709 150.72846 10182 ft 332 kts 56°
2026-05-04 11:20 -34.13613 150.75272 10029 ft 325 kts 56°
2026-05-04 11:20 -34.12539 150.77651 9798 ft 321 kts 56°
2026-05-04 11:22 -34.08060 150.93720 7803 ft 294 kts 86°
2026-05-04 11:22 -34.08077 150.96183 7482 ft 293 kts 86°
2026-05-04 11:23 -34.08072 150.98632 7218 ft 291 kts 85°
2026-05-04 11:23 -34.08056 151.01059 6962 ft 289 kts 85°
2026-05-04 11:24 -34.15105 151.09599 5410 ft 270 kts 172°
2026-05-04 11:25 -34.16930 151.10062 5170 ft 267 kts 172°
2026-05-04 11:25 -34.18733 151.10498 4910 ft 259 kts 176°
2026-05-04 11:25 -34.20460 151.10974 4671 ft 255 kts 159°
2026-05-04 11:26 -34.22714 151.13869 4472 ft 232 kts 105°
2026-05-04 11:27 -34.18825 151.23458 2728 ft 188 kts
2026-05-04 11:28 -34.17603 151.23392 2552 ft 159 kts 350°
2026-05-04 11:28 -34.16564 151.23239 2656 ft 144 kts 348°
2026-05-04 11:28 -34.15637 151.23043 2721 ft 127 kts 346°
2026-05-04 11:28 -34.14745 151.22836 2505 ft 139 kts 341°
2026-05-04 11:29 -34.13845 151.22518 2702 ft 133 kts 342°
2026-05-04 11:29 -34.12951 151.22274 2798 ft 132 kts 345°
2026-05-04 11:29 -34.12062 151.22208 3005 ft 124 kts 356°
2026-05-04 11:29 -34.11198 151.22009 2792 ft 131 kts 340°
2026-05-04 11:31 -34.04993 151.20243 2034 ft 127 kts 346°
2026-05-04 11:33 -33.98811 151.18644 600 ft 140 kts 348°
2026-05-04 11:33 -33.98189 151.18462 456 ft 137 kts 351°
2026-05-04 11:33 -33.97277 151.18243 264 ft 131 kts 355°
2026-05-04 11:34 -33.96356 151.18043 68 ft 137 kts 349°
2026-05-04 11:34 -33.95478 151.17776 33 ft 117 kts 338°
2026-05-04 11:34 -33.94842 151.17654 34 ft 57 kts 351°
2026-05-04 11:34 -33.94603 151.17656 34 ft 23 kts 11°
2026-05-04 11:35 -33.94484 151.17695 35 ft 17 kts 18°
2026-05-04 11:35 -33.94370 151.17735 35 ft 11 kts
2026-05-04 11:35 -33.94365 151.17734 35 ft 0 kts 358°
2026-05-04 11:37 -33.94357 151.17734 35 ft 6 kts 357°
2026-05-04 11:37 -33.94338 151.17732 35 ft 0 kts 353°
2026-05-04 11:38 -33.94315 151.17727 34 ft 10 kts 350°
2026-05-04 11:38 -33.94234 151.17707 34 ft 13 kts 345°
2026-05-04 11:38 -33.94143 151.17677 34 ft 14 kts 346°
2026-05-04 11:38 -33.94048 151.17651 33 ft 14 kts 347°
2026-05-04 11:39 -33.93954 151.17625 34 ft 14 kts 347°
2026-05-04 11:39 -33.93908 151.17580 33 ft 5 kts 297°
2026-05-04 11:40 -33.93904 151.17559 33 ft 0 kts 276°
2026-05-04 11:42 -33.93904 151.17558 33 ft 1 kts 276°
2026-05-04 11:43 -33.93918 151.17452 32 ft 17 kts 255°
2026-05-04 11:43 -33.93950 151.17311 32 ft 17 kts 254°
2026-05-04 11:43 -33.93984 151.17170 34 ft 18 kts 254°
2026-05-04 11:43 -33.94018 151.17029 34 ft 18 kts 252°
2026-05-04 11:44 -33.94052 151.16889 35 ft 18 kts 255°
2026-05-04 11:44 -33.94083 151.16747 35 ft 18 kts 254°
2026-05-04 11:44 -33.94108 151.16649 35 ft 9 kts 253°
2026-05-04 11:44 -33.94125 151.16572 35 ft 10 kts 256°
2026-05-04 11:45 -33.94134 151.16531 35 ft 3 kts 257°
2026-05-04 11:45 -33.94134 151.16506 35 ft 3 kts 287°
2026-05-04 11:45 -33.94113 151.16489 34 ft 4 kts 335°
2026-05-04 11:45 -33.94086 151.16479 35 ft 4 kts 344°
2026-05-04 11:46 -33.94068 151.16472 35 ft 2 kts 344°
2026-05-04 11:46 -33.94059 151.16469 35 ft 1 kts 345°
2026-05-04 11:46 -33.94052 151.16467 35 ft 1 kts 345°
2026-05-04 11:46 -33.94048 151.16466 35 ft 0 kts 345°
2026-05-04 11:47 -33.94046 151.16465 35 ft 0 kts 345°